Location: Harwich
(41.7160°N, 69.9939°W)
Time: 08:58:14
(UTC+02:00)

A-11 Canister half - Pass Details

Date: 26 February 2024
Orbit: 1513 x 1686 km, 47.2° (Epoch: 24 April)

Event Time Altitude Azimuth Distance (km) Brightness Sun altitude
Exits shadow 11:10:56 14° 290° (WNW) 3,599 10.4 -13.7°
Maximum altitude 11:19:55 70° 13° (NNE) 1,720 9.3 -12.0°
Drops below altitude 10° 11:29:35 10° 97° (E) 3,790 12.7 -10.2°
Sets 11:32:39 0° 100° (E) 4,751 13.8 -9.6°
